Oakes, ND

9:57 AM CST on February 20, 2017 (GMT -0600)
Oakes

Weather History for K2D5 - October, 2013

Change the Weather History Date:

Thursday, October 17, 2013

  Actual Average (KP67) Record (KP67)
Temperature  
Mean Temperature 38 °F -  
Max Temperature 44 °F 56 °F 68 °F (1997)
Min Temperature 32 °F 34 °F 37 °F (1996)
Degree Days  
Heating Degree Days 27    
Moisture  
Dew Point 36 °F    
Average Humidity 86    
Maximum Humidity 100    
Minimum Humidity 57    
Precipitation  
Precipitation 0.11 in - - ()
Sea Level Pressure  
Sea Level Pressure 29.92 in    
Wind  
Wind Speed 11 mph (NW)    
Max Wind Speed 23 mph    
Max Gust Speed 28 mph    
Visibility 10 miles    
Events Rain    
Averages and records for this station are not official NWS values.
T = Trace of Precipitation, MM = Missing Value Source: NWS Daily Summary

Daily Weather History Graph

Daily Weather History Graph

Search for Another Location

Airport or City:

Trip Planner

Search our weather history database for the weather conditions in past years. The results will help you decide how hot, cold, wet, or windy it might be!

Date:

Astronomy

Oct. 17, 2013 Rise Set
Actual Time 7:52 AM CDT 6:41 PM CDT
Civil Twilight 7:22 AM CDT 7:12 PM CDT
Nautical Twilight 6:47 AM CDT 7:46 PM CDT
Astronomical Twilight 6:12 AM CDT 8:21 PM CDT
Moon 5:58 PM CDT (10/17) 6:22 AM CDT (10/17)
Length of Visible Light 11h 50m
Length of Day
10h 49m
Waxing Gibbous, 98% of the Moon is Illuminated
Oct 17
Waxing Gibbous
Oct 18
Full
Oct 26
Last Quarter
Nov 3
New
Nov 9
First Quarter

Hourly Weather History & Observations

Time (CDT) Temp. Windchill Dew Point Humidity Pressure Visibility Wind Dir Wind Speed Gust Speed Precip Events Conditions
12:15 AM 41.0 °F 37.1 °F 39.2 °F 93% 29.83 in 10.0 mi SW 5.8 mph - N/A   Overcast
12:35 AM 41.0 °F 38.0 °F 39.2 °F 93% 29.82 in 10.0 mi WSW 4.6 mph - N/A   Overcast
12:55 AM 41.0 °F 38.0 °F 39.2 °F 93% 29.82 in 10.0 mi WNW 4.6 mph - N/A   Overcast
1:15 AM 41.0 °F 37.1 °F 39.2 °F 93% 29.82 in 10.0 mi WNW 5.8 mph - N/A   Overcast
1:35 AM 41.0 °F 36.4 °F 39.2 °F 93% 29.82 in 10.0 mi WNW 6.9 mph - N/A   Overcast
1:55 AM 42.8 °F 40.1 °F 39.2 °F 87% 29.82 in 10.0 mi West 4.6 mph - N/A   Overcast
2:15 AM 41.0 °F 37.1 °F 41.0 °F 100% 29.82 in 10.0 mi WNW 5.8 mph - N/A   Overcast
2:35 AM 42.8 °F 38.6 °F 41.0 °F 93% 29.83 in 10.0 mi WNW 6.9 mph - N/A   Overcast
2:55 AM 42.8 °F 39.3 °F 41.0 °F 93% 29.83 in 10.0 mi WNW 5.8 mph - N/A   Overcast
3:15 AM 44.6 °F 40.7 °F 41.0 °F 87% 29.82 in 10.0 mi NW 6.9 mph - N/A   Overcast
3:35 AM 42.8 °F 38.6 °F 41.0 °F 93% 29.83 in 10.0 mi NW 6.9 mph - N/A   Mostly Cloudy
3:55 AM 44.6 °F 39.7 °F 42.8 °F 93% 29.83 in 10.0 mi NNW 9.2 mph - N/A   Overcast
4:15 AM 44.6 °F 39.2 °F 41.0 °F 87% 29.83 in 10.0 mi NNW 10.4 mph - N/A   Overcast
4:35 AM 44.6 °F 39.7 °F 41.0 °F 87% 29.83 in 10.0 mi NNW 9.2 mph - N/A   Mostly Cloudy
4:55 AM 44.6 °F 39.2 °F 41.0 °F 87% 29.83 in 10.0 mi North 10.4 mph - N/A   Overcast
5:15 AM 44.6 °F 38.8 °F 41.0 °F 87% 29.84 in 10.0 mi NNW 11.5 mph - N/A   Overcast
5:35 AM 44.6 °F 38.4 °F 41.0 °F 87% 29.85 in 10.0 mi NNW 12.7 mph - N/A   Overcast
5:55 AM 44.6 °F 38.1 °F 41.0 °F 87% 29.85 in 10.0 mi NNW 13.8 mph 19.6 mph N/A   Mostly Cloudy
6:15 AM 44.6 °F 37.4 °F 41.0 °F 87% 29.85 in 10.0 mi North 16.1 mph - N/A   Mostly Cloudy
6:35 AM 44.6 °F 37.2 °F 41.0 °F 87% 29.86 in 10.0 mi NNW 17.3 mph - N/A Rain Light Rain
6:55 AM 44.6 °F 38.1 °F 41.0 °F 87% 29.86 in 10.0 mi NNW 13.8 mph 20.7 mph N/A   Overcast
7:15 AM 44.6 °F 37.8 °F 41.0 °F 87% 29.86 in 10.0 mi North 15.0 mph 20.7 mph N/A   Overcast
7:35 AM 42.8 °F 35.8 °F 41.0 °F 93% 29.87 in 10.0 mi NNW 13.8 mph - N/A   Overcast
7:55 AM 41.0 °F 32.5 °F 37.4 °F 87% 29.89 in 10.0 mi North 17.3 mph 26.5 mph N/A Rain Light Rain
8:15 AM 41.0 °F 32.5 °F 37.4 °F 87% 29.90 in 10.0 mi North 17.3 mph 26.5 mph N/A   Overcast
8:35 AM 41.0 °F 31.9 °F 35.6 °F 81% 29.91 in 10.0 mi NNW 19.6 mph 25.3 mph N/A   Overcast
8:55 AM 41.0 °F 31.4 °F 35.6 °F 81% 29.91 in 10.0 mi NNW 21.9 mph 26.5 mph N/A   Overcast
9:15 AM 39.2 °F 31.6 °F 37.4 °F 93% 29.92 in 5.0 mi North 12.7 mph 27.6 mph 0.01 in   Overcast
9:35 AM 39.2 °F 31.6 °F 39.2 °F 100% 29.93 in 10.0 mi North 12.7 mph - 0.01 in Rain Light Rain
9:55 AM 39.2 °F 30.2 °F 39.2 °F 100% 29.94 in 10.0 mi North 17.3 mph 25.3 mph 0.01 in Rain Light Rain
10:15 AM 39.2 °F 29.8 °F 39.2 °F 100% 29.94 in 9.0 mi NNW 18.4 mph - N/A   Unknown
10:35 AM 39.2 °F 29.0 °F 39.2 °F 100% 29.95 in 7.0 mi North 21.9 mph - 0.02 in   Unknown
10:55 AM 39.2 °F 30.5 °F 39.2 °F 100% 29.96 in 5.0 mi NNW 16.1 mph 25.3 mph 0.04 in Rain Light Rain
11:15 AM 39.2 °F 30.5 °F 39.2 °F 100% 29.96 in 7.0 mi NNW 16.1 mph 21.9 mph 0.01 in Rain Light Rain
11:35 AM 39.2 °F 28.7 °F 39.2 °F 100% 29.96 in 6.0 mi NNW 23.0 mph 26.5 mph 0.04 in Rain Light Rain
11:55 AM 39.2 °F 29.6 °F 37.4 °F 93% 29.97 in 6.0 mi North 19.6 mph 26.5 mph 0.06 in   Overcast
12:15 PM 39.2 °F 30.8 °F 37.4 °F 93% 29.97 in 10.0 mi North 15.0 mph - N/A   Overcast
12:35 PM 41.0 °F 33.9 °F 37.4 °F 87% 29.97 in 10.0 mi NNW 12.7 mph 24.2 mph N/A   Mostly Cloudy
12:55 PM 41.0 °F 32.5 °F 37.4 °F 87% 29.97 in 10.0 mi NNW 17.3 mph - N/A   Overcast
1:15 PM 44.6 °F 36.9 °F 37.4 °F 76% 29.96 in 10.0 mi NNW 18.4 mph - N/A   Mostly Cloudy
1:35 PM 44.6 °F 36.6 °F 35.6 °F 71% 29.96 in 10.0 mi NNW 19.6 mph 24.2 mph N/A   Overcast
1:55 PM 42.8 °F 35.1 °F 35.6 °F 76% 29.96 in 10.0 mi NNW 16.1 mph 24.2 mph N/A   Overcast
2:15 PM 42.8 °F 34.8 °F 35.6 °F 76% 29.96 in 10.0 mi NNW 17.3 mph - N/A   Overcast
2:35 PM 41.0 °F 32.5 °F 32.0 °F 70% 29.96 in 10.0 mi NW 17.3 mph 25.3 mph N/A   Overcast
2:55 PM 42.8 °F 35.1 °F 32.0 °F 66% 29.96 in 10.0 mi North 16.1 mph - N/A   Overcast
3:15 PM 44.6 °F 36.6 °F 32.0 °F 61% 29.95 in 10.0 mi NNW 19.6 mph 23.0 mph N/A   Overcast
3:35 PM 42.8 °F 34.8 °F 32.0 °F 66% 29.96 in 10.0 mi NW 17.3 mph 23.0 mph N/A   Overcast
3:55 PM 44.6 °F 38.1 °F 32.0 °F 61% 29.96 in 10.0 mi NW 13.8 mph - N/A   Overcast
4:15 PM 44.6 °F 37.2 °F 32.0 °F 61% 29.96 in 10.0 mi NW 17.3 mph - N/A   Overcast
4:35 PM 44.6 °F 36.1 °F 32.0 °F 61% 29.96 in 10.0 mi NW 21.9 mph 25.3 mph N/A   Overcast
4:55 PM 44.6 °F 36.6 °F 32.0 °F 61% 29.96 in 10.0 mi NNW 19.6 mph 24.2 mph N/A   Overcast
5:15 PM 44.6 °F 37.4 °F 32.0 °F 61% 29.96 in 10.0 mi NW 16.1 mph 23.0 mph N/A   Overcast
5:35 PM 44.6 °F 37.4 °F 30.2 °F 57% 29.97 in 10.0 mi NW 16.1 mph - N/A   Overcast
5:55 PM 42.8 °F 35.1 °F 30.2 °F 61% 29.97 in 10.0 mi NW 16.1 mph - N/A   Overcast
6:15 PM 42.8 °F 36.2 °F 32.0 °F 66% 29.98 in 10.0 mi NW 12.7 mph 17.3 mph N/A   Overcast
6:35 PM 41.0 °F 35.2 °F 32.0 °F 70% 29.98 in 10.0 mi NW 9.2 mph - N/A   Overcast
6:55 PM 41.0 °F 36.4 °F 32.0 °F 70% 29.98 in 10.0 mi WNW 6.9 mph - N/A   Overcast
7:15 PM 37.4 °F 32.1 °F 33.8 °F 87% 29.99 in 10.0 mi WNW 6.9 mph - N/A   Mostly Cloudy
7:35 PM 37.4 °F 32.1 °F 32.0 °F 81% 29.99 in 10.0 mi WNW 6.9 mph - N/A   Mostly Cloudy
7:55 PM 35.6 °F 29.2 °F 32.0 °F 87% 29.99 in 10.0 mi West 8.1 mph - N/A   Mostly Cloudy
8:15 PM 35.6 °F 29.2 °F 32.0 °F 87% 29.99 in 10.0 mi West 8.1 mph - N/A   Mostly Cloudy
8:35 PM 33.8 °F 27.7 °F 32.0 °F 93% 29.99 in 10.0 mi West 6.9 mph - N/A   Partly Cloudy
8:55 PM 33.8 °F 27.7 °F 32.0 °F 93% 29.99 in 10.0 mi West 6.9 mph - N/A   Partly Cloudy
9:15 PM 32.0 °F 24.2 °F 32.0 °F 100% 29.99 in 10.0 mi West 9.2 mph - N/A   Mostly Cloudy
9:35 PM 32.0 °F 24.8 °F 32.0 °F 100% 29.99 in 10.0 mi West 8.1 mph - N/A   Mostly Cloudy
9:55 PM 32.0 °F 25.6 °F 32.0 °F 100% 29.99 in 10.0 mi West 6.9 mph - N/A   Partly Cloudy
10:15 PM 32.0 °F 24.2 °F 32.0 °F 100% 30.00 in 10.0 mi West 9.2 mph - N/A   Clear
10:35 PM 32.0 °F 24.8 °F 32.0 °F 100% 30.00 in 10.0 mi West 8.1 mph - N/A   Clear
10:55 PM 32.0 °F 24.2 °F 32.0 °F 100% 29.99 in 10.0 mi West 9.2 mph - N/A   Clear
11:15 PM 32.0 °F 24.8 °F 32.0 °F 100% 30.00 in 10.0 mi West 8.1 mph - N/A   Clear
11:35 PM 32.0 °F 24.8 °F 32.0 °F 100% 30.00 in 10.0 mi West 8.1 mph - N/A   Clear
11:55 PM 32.0 °F 25.6 °F 30.2 °F 93% 29.99 in 10.0 mi West 6.9 mph - N/A   Clear